Riverside, CA

2:34 PM PST on February 07, 2016 (GMT -0800)
Riverside Municipal

Weather History for KRAL - December, 2011

Change the Weather History Date:

Tuesday, December 13, 2011

  Actual Average Record
Temperature  
Mean Temperature 50 °F 54 °F  
Max Temperature 58 °F 66 °F 89 °F (1988)
Min Temperature 41 °F 42 °F 26 °F (1931)
Degree Days  
Heating Degree Days 15 11  
Month to date heating degree days 160 129  
Since 1 July heating degree days 383 329  
Cooling Degree Days 0 0  
Month to date cooling degree days 0 0  
Year to date cooling degree days 1718 1754  
Moisture  
Dew Point 40 °F    
Average Humidity 72    
Maximum Humidity 96    
Minimum Humidity 47    
Precipitation  
Precipitation 0.00 in 0.03 in 0.79 in (1922)
Month to date precipitation 0.43 0.47  
Year to date precipitation 6.82 11.34  
Since 1 July precipitation 2.62  
Snow  
Snow 0.00 in - - ()
Month to date snowfall 0.0  
Year to date snowfall 0.0  
Snow Depth 0.00 in    
Sea Level Pressure  
Sea Level Pressure 29.91 in    
Wind  
Wind Speed 4 mph (North)    
Max Wind Speed 9 mph    
Max Gust Speed 15 mph    
Visibility 10 miles    
Events      
T = Trace of Precipitation, MM = Missing Value Source: NWS Daily Summary

Daily Weather History Graph

Daily Weather History Graph

Search for Another Location

Airport or City:

Trip Planner

Search our weather history database for the weather conditions in past years. The results will help you decide how hot, cold, wet, or windy it might be!

Date:

Astronomy

Dec. 13, 2011 Rise Set
Actual Time 6:46 AM PST 4:41 PM PST
Civil Twilight 6:18 AM PST 5:09 PM PST
Nautical Twilight 5:47 AM PST 5:40 PM PST
Astronomical Twilight 5:16 AM PST 6:10 PM PST
Moon 7:55 PM PST (12/13) 9:03 AM PST (12/13)
Length of Visible Light 10h 50m
Length of Day
9h 55m
Waning Gibbous, 90% of the Moon is Illuminated
Dec 13
Waning Gibbous
Dec 17
Last Quarter
Dec 24
New
Dec 31
First Quarter
Jan 8
Full

Hourly Weather History & Observations

Time (PST) Temp. Windchill Dew Point Humidity Pressure Visibility Wind Dir Wind Speed Gust Speed Precip Events Conditions
12:53 AM 46.9 °F - 42.1 °F 83% 29.85 in 10.0 mi Calm Calm - N/A   Partly Cloudy
1:53 AM 45.0 °F 43.5 °F 42.1 °F 90% 29.83 in 10.0 mi East 3.5 mph - N/A   Partly Cloudy
2:53 AM 43.0 °F - 41.0 °F 93% 29.85 in 8.0 mi Calm Calm - N/A   Partly Cloudy
3:53 AM 44.1 °F - 39.9 °F 85% 29.85 in 10.0 mi Calm Calm - N/A   Clear
4:53 AM 43.0 °F 41.3 °F 39.9 °F 89% 29.84 in 10.0 mi East 3.5 mph - N/A   Scattered Clouds
5:53 AM 43.0 °F 41.3 °F 39.9 °F 89% 29.84 in 10.0 mi NE 3.5 mph - N/A   Mostly Cloudy
6:53 AM 43.0 °F 41.3 °F 39.9 °F 89% 29.87 in 10.0 mi East 3.5 mph - N/A   Mostly Cloudy
7:53 AM 48.0 °F - 37.9 °F 68% 29.87 in 10.0 mi ENE 5.8 mph - N/A   Mostly Cloudy
8:53 AM 51.1 °F - 39.0 °F 63% 29.89 in 10.0 mi Variable 3.5 mph - N/A   Mostly Cloudy
9:53 AM 53.1 °F - 39.9 °F 61% 29.91 in 10.0 mi North 3.5 mph - N/A   Mostly Cloudy
11:53 AM 55.0 °F - 39.0 °F 55% 29.88 in 10.0 mi WNW 5.8 mph - N/A   Mostly Cloudy
12:53 PM 57.0 °F - 39.0 °F 51% 29.87 in 10.0 mi West 4.6 mph - N/A   Mostly Cloudy
1:53 PM 57.0 °F - 37.9 °F 49% 29.88 in 10.0 mi Variable 5.8 mph - N/A   Clear
2:53 PM 57.9 °F - 39.0 °F 49% 29.90 in 10.0 mi West 6.9 mph - N/A   Clear
3:53 PM 57.0 °F - 39.9 °F 53% 29.91 in 10.0 mi West 4.6 mph - N/A   Scattered Clouds
4:53 PM 55.0 °F - 39.0 °F 55% 29.93 in 10.0 mi West 3.5 mph - N/A   Mostly Cloudy
5:53 PM 54.0 °F - 41.0 °F 62% 29.95 in 10.0 mi NW 3.5 mph - N/A   Mostly Cloudy
6:53 PM 51.1 °F - 42.1 °F 71% 29.98 in 10.0 mi WNW 5.8 mph - N/A   Mostly Cloudy
7:53 PM 50.0 °F - 42.1 °F 74% 30.01 in 10.0 mi Calm Calm - N/A   Clear
8:53 PM 46.9 °F - 42.1 °F 83% 30.03 in 10.0 mi Calm Calm - N/A   Clear
9:53 PM 46.0 °F 44.8 °F 42.1 °F 86% 30.05 in 10.0 mi East 3.5 mph - N/A   Clear
10:53 PM 46.0 °F - 42.1 °F 86% 30.07 in 10.0 mi Calm Calm - N/A   Clear